Wind_Speed
65 63 61 61 61 61 59 56 53 52 53 52 52 52 52 51 48 46 45 46 46 46 47 47 46 45 42 40 38 36 35 34 32 31 30 29 29 30 30 29 29 28 27 25 25 26 26 27 27 27 28 29 29 30 30 31 31 32 33 34 35 35 35 35 35 35 36 36 37 38 39 40 40 40 41 42 42 43 42 42 42 42 42 42 43 43
65 63 62 63 63 61 58 55 55 55 55 55 55 54 53 52 50 48 47 47 47 47 48 48 46 46 45 41 40 38 37 37 34 32 32 31 31 31 31 31 31 30 29 29 28 27 27 27 28 29 29 30 31 32 32 32 33 33 33 35 36 36 37 37 37 36 37 37 37 38 39 40 41 41 42 43 43 44 45 45 45 45 45 44 45 45
64 63 64 64 64 61 58 57 57 57 57 57 56 55 54 54 52 49 48 49 49 48 49 49 47 47 47 43 41 39 39 39 37 35 35 33 33 33 32 32 32 32 32 31 30 29 29 29 29 30 30 31 32 33 34 34 35 35 35 36 37 38 38 38 38 38 38 38 38 38 39 40 41 42 43 43 44 45 46 46 47 48 48 47 47 47
64 64 65 65 64 61 59 59 60 59 59 59 58 57 56 56 54 50 50 51 50 49 49 49 47 48 49 45 43 41 39 41 39 38 38 37 36 35 34 34 34 34 34 34 32 31 31 31 30 31 32 31 32 33 35 35 36 36 36 38 39 40 40 40 40 40 39 40 40 40 40 40 41 42 43 43 44 45 45 46 47 49 49 49 49 49
65 65 66 66 64 62 61 61 61 61 61 61 60 59 58 58 55 52 52 53 52 50 50 50 47 47 50 47 44 42 41 42 41 40 41 40 39 38 36 36 36 36 37 36 34 33 33 33 32 33 33 32 32 33 34 35 37 37 37 37 38 40 41 41 41 42 41 41 41 41 41 42 42 43 44 44 45 44 45 46 47 48 49 50 50 50
66 66 67 67 65 64 63 63 64 64 63 62 61 60 60 59 57 55 55 54 53 52 51 51 47 46 50 48 46 45 42 43 43 42 43 42 40 40 40 39 38 37 39 38 37 35 34 34 34 34 34 33 33 32 33 35 37 39 39 38 38 38 40 40 41 42 42 42 42 42 42 43 43 44 45 45 46 46 46 47 47 48 49 50 50 51
67 67 69 69 67 66 65 65 66 66 65 64 63 63 63 61 60 59 57 56 55 53 52 52 48 45 49 50 49 47 44 44 46 46 45 43 42 42 42 42 40 40 41 41 40 38 36 35 34 35 35 34 34 34 35 36 37 39 41 41 40 39 40 40 41 42 42 42 42 43 43 44 45 46 47 47 47 47 47 48 48 48 49 49 50 51
69 70 71 71 70 69 68 67 67 68 67 65 64 65 65 63 62 61 60 58 56 54 53 52 49 46 45 50 52 48 45 46 49 49 46 44 43 44 45 44 43 43 43 43 42 40 38 37 35 35 36 36 36 37 37 38 38 39 41 43 42 41 41 42 41 42 42 42 42 43 44 45 46 47 48 48 48 48 49 49 49 48 49 49 50 51
71 73 74 73 72 71 69 69 69 70 68 66 66 67 66 64 64 63 62 61 59 57 53 51 52 48 42 48 54 51 47 50 53 52 47 45 45 46 47 46 45 46 46 45 44 42 41 39 38 37 37 38 38 38 38 38 39 39 40 42 43 43 43 43 43 43 43 43 43 44 44 45 46 46 47 48 48 48 49 49 49 49 49 49 50 51
72 74 75 74 73 71 70 70 71 70 68 67 67 67 67 66 66 66 64 63 62 58 53 51 54 51 41 44 52 52 51 54 56 54 49 46 47 48 50 48 47 48 48 47 47 46 44 42 40 39 38 39 39 39 39 39 39 40 41 42 43 44 44 44 44 44 44 44 44 45 45 45 45 45 46 47 48 47 48 49 49 49 49 49 50 51
73 76 76 74 73 72 72 73 73 72 70 69 69 69 69 69 69 69 67 66 65 59 53 51 55 55 44 39 48 54 55 58 58 55 51 49 49 51 52 50 49 50 50 50 50 49 47 45 42 40 39 39 39 39 40 41 41 41 42 43 44 44 45 45 45 45 45 45 45 45 45 44 44 45 45 46 47 46 47 48 49 49 49 50 50 51
74 76 76 75 74 74 74 75 75 74 72 71 70 70 72 72 72 71 69 69 67 60 55 53 57 58 45 36 45 55 58 61 60 55 53 52 52 53 53 52 51 53 54 54 53 52 50 47 44 42 40 40 40 40 41 42 42 42 43 44 45 45 46 46 46 46 45 45 45 44 44 44 44 44 45 46 46 46 48 48 49 49 50 50 50 50
77 78 78 77 76 76 76 76 76 75 73 73 72 73 75 75 75 74 72 71 69 63 59 57 60 58 45 37 44 52 58 63 62 58 55 55 55 56 56 54 54 56 57 56 56 55 52 49 46 44 42 41 41 41 41 42 43 43 43 44 45 45 46 47 47 47 46 45 44 43 43 43 44 44 46 46 46 47 48 48 48 49 49 49 50 50
79 79 79 79 78 77 77 77 77 77 77 77 77 78 79 79 78 75 73 73 71 66 63 61 62 56 44 40 43 49 57 62 62 60 59 59 60 60 58 56 57 59 59 59 58 57 54 51 48 47 45 44 43 42 42 42 42 43 43 44 45 45 46 47 47 47 46 45 44 43 43 44 44 45 47 46 46 47 48 48 48 49 49 49 50 50
80 79 79 78 78 78 79 79 80 80 81 81 81 81 80 78 77 75 75 75 72 69 67 66 63 53 44 43 46 50 55 58 58 59 60 62 64 64 60 59 60 62 62 60 59 59 56 52 51 50 49 47 44 43 42 42 41 42 43 44 45 46 47 48 47 46 45 44 43 43 44 44 44 46 47 47 47 48 48 48 49 50 50 50 50 50
81 80 79 80 80 81 81 82 83 82 83 83 82 82 79 76 77 78 78 77 75 75 72 69 63 52 47 47 48 52 54 55 58 60 61 65 66 65 62 62 64 65 64 62 62 61 58 54 54 54 53 50 47 44 42 41 41 41 42 44 45 46 48 49 48 46 44 43 43 44 45 46 46 47 48 47 48 49 50 49 50 51 51 51 51 51
84 84 82 83 84 84 84 85 85 85 85 84 83 82 79 77 80 83 82 79 79 79 74 69 63 54 51 51 49 53 54 55 58 61 63 66 66 65 64 64 66 66 65 64 64 64 60 57 57 56 56 54 50 46 43 41 40 40 42 43 45 46 47 48 48 47 45 45 45 46 48 48 48 48 49 48 49 50 51 51 52 52 53 53 53 53
87 88 85 84 86 86 86 87 87 86 86 85 83 81 80 80 83 85 84 82 81 80 74 69 65 60 58 52 48 52 55 57 60 62 64 65 65 66 66 66 68 68 67 66 67 67 64 61 60 58 58 58 54 50 47 44 41 41 42 43 45 46 47 47 48 48 48 49 49 50 50 50 50 50 50 50 50 51 53 54 54 54 55 56 56 56
89 90 89 87 87 88 88 89 88 87 86 84 83 82 82 83 84 85 86 84 83 82 78 73 69 67 62 54 49 52 56 58 61 62 63 65 65 67 67 68 69 69 68 68 69 69 67 65 63 61 60 60 58 55 52 48 45 43 44 45 46 47 48 48 49 50 51 52 53 53 52 52 51 51 52 52 52 53 54 55 56 56 57 58 58 59
91 93 92 89 88 90 90 89 87 85 85 86 85 85 85 86 86 87 88 87 85 86 83 78 74 70 63 56 55 56 57 60 61 62 64 65 66 68 68 69 71 71 70 71 72 71 69 69 68 66 62 59 58 57 55 52 48 46 47 48 48 49 50 50 51 52 54 55 55 54 54 54 53 53 53 53 54 55 56 57 57 58 58 59 60 61
95 95 94 91 89 90 90 88 86 86 88 90 89 88 87 87 88 90 89 88 88 89 87 84 81 72 62 59 59 59 60 62 63 63 65 67 68 69 70 71 72 73 72 73 73 73 72 72 72 71 66 61 59 58 55 51 49 49 51 52 52 52 52 52 53 55 56 56 56 56 56 56 56 56 56 56 57 58 59 59 59 60 61 61 62 64
98 96 96 95 92 91 90 89 89 91 92 93 92 91 89 88 90 92 92 90 90 91 90 90 87 75 63 61 62 62 64 65 66 66 66 68 70 71 72 73 74 74 74 74 74 74 74 75 75 74 71 67 65 63 57 51 49 50 53 55 56 55 54 54 56 57 58 57 57 57 58 59 59 60 59 59 60 61 61 61 62 63 63 64 65 66
101 100 99 98 95 92 92 92 93 94 94 94 94 92 90 90 91 93 94 93 92 93 92 94 94 81 66 63 65 65 67 69 69 70 69 70 71 73 73 74 74 75 75 75 75 76 77 77 77 76 74 72 71 68 62 56 53 54 56 58 58 58 57 57 58 59 59 59 59 59 59 60 61 62 62 62 62 63 64 64 65 65 66 66 67 68
103 103 101 100 98 95 94 94 94 95 95 95 93 92 91 92 93 94 96 96 95 95 94 97 99 87 70 67 69 70 72 73 73 74 74 73 74 74 75 75 75 75 76 77 77 78 79 79 77 76 76 76 75 71 66 62 60 60 61 62 62 62 61 60 60 61 61 61 61 62 62 62 63 64 64 64 65 65 66 66 67 67 68 68 69 70
104 104 103 102 101 99 96 95 95 95 95 94 93 93 94 94 96 98 99 100 100 99 97 99 102 91 75 71 73 73 74 75 75 76 76 76 76 76 77 77 77 78 77 77 78 78 80 80 79 76 76 78 78 74 69 66 65 65 65 67 68 67 66 65 64 63 63 63 64 65 66 65 66 66 66 66 67 67 68 68 69 69 69 70 70 71
106 106 106 105 104 102 98 96 95 95 96 97 97 96 97 97 99 101 102 105 105 102 100 101 101 93 80 74 74 75 75 76 77 78 78 78 78 79 79 80 81 80 78 77 78 79 80 80 80 79 78 78 78 75 72 70 69 68 68 70 72 72 71 69 68 66 66 66 67 68 69 69 68 68 68 68 68 70 71 70 71 71 72 72 72 73
109 109 108 107 106 103 99 97 98 98 99 101 100 99 100 100 102 105 106 107 106 103 103 102 100 94 85 78 77 77 77 78 80 81 81 81 82 83 83 83 82 82 80 80 80 81 80 81 81 80 79 78 78 76 74 74 74 71 71 72 74 75 75 73 71 70 69 69 70 71 71 71 70 69 70 70 70 72 73 73 73 73 74 74 75 76
111 111 110 110 109 106 103 102 102 103 103 103 102 102 102 103 104 107 108 107 105 105 105 101 98 97 92 85 81 79 78 80 82 83 83 84 84 86 87 86 84 84 84 84 84 83 83 83 82 80 80 80 79 77 76 78 78 75 73 74 76 78 78 76 74 73 72 73 73 74 74 73 72 72 72 73 73 74 74 75 75 76 76 77 77 78
112 111 111 111 111 110 108 107 107 107 106 105 105 105 105 105 106 108 108 106 105 107 106 101 98 100 98 91 85 81 80 83 86 86 86 87 88 90 90 88 87 87 88 87 87 87 86 84 82 81 81 82 81 79 79 81 81 79 76 75 76 78 79 78 76 75 74 75 75 76 76 76 76 76 76 76 76 76 76 77 77 78 78 79 79 80
114 113 112 113 114 113 112 111 110 111 111 110 109 108 108 108 108 108 108 106 106 108 107 104 103 103 100 95 90 85 84 88 90 90 90 91 92 92 92 90 89 90 90 90 90 89 88 86 84 84 84 84 84 83 82 83 82 79 77 77 79 80 82 81 79 77 76 76 77 78 78 79 79 79 79 78 78 78 78 78 79 79 80 80 81 81
116 115 114 115 117 115 113 112 112 113 114 114 113 112 111 110 109 108 107 107 108 109 109 108 108 105 100 96 95 92 91 93 94 92 92 93 93 93 93 92 92 93 93 92 91 91 90 88 87 87 86 86 86 85 84 83 82 80 79 80 82 84 85 85 83 81 80 79 80 80 81 82 82 82 82 81 80 80 80 80 80 81 81 82 82 82
119 118 117 117 118 117 114 113 113 114 116 118 117 114 110 108 107 108 109 109 110 110 110 110 110 106 100 98 99 98 95 95 95 93 92 93 94 95 96 96 96 96 95 93 92 91 91 91 90 89 88 88 88 88 87 86 85 84 84 85 85 86 86 86 85 84 84 83 83 83 83 84 84 84 84 83 83 82 82 82 83 83 83 83 83 83
121 120 119 119 120 118 115 113 115 117 119 121 117 111 108 107 108 110 111 109 108 109 110 111 110 107 103 101 101 99 97 98 97 95 95 96 97 98 99 98 97 96 94 92 92 92 92 92 92 92 91 91 91 91 91 90 89 88 88 88 87 87 86 85 86 86 86 86 86 85 85 85 85 85 85 86 86 85 85 85 86 86 85 85 85 85
124 123 122 122 123 121 117 115 118 122 123 120 115 109 109 111 112 112 110 108 108 109 111 112 111 109 107 104 101 100 100 102 102 100 99 100 100 100 99 97 96 95 95 95 95 96 96 96 96 96 95 95 95 95 94 93 92 90 89 88 87 87 86 86 87 87 88 88 88 87 87 87 86 86 86 87 87 87 87 87 87 87 87 87 87 87
124 124 125 125 126 125 122 121 125 127 125 119 113 111 113 114 113 112 111 109 109 111 113 114 114 112 109 105 103 103 104 105 106 105 103 103 103 102 101 99 98 99 100 100 100 100 100 100 100 99 98 97 97 95 94 92 91 90 89 89 88 88 88 88 87 88 88 89 89 89 88 88 88 88 88 88 88 88 88 88 89 89 89 88 88 89
121 122 123 125 127 128 127 127 129 130 127 120 117 115 115 114 113 114 114 113 113 114 116 117 115 113 110 107 106 107 108 109 111 110 106 104 105 106 105 104 104 104 105 104 103 103 102 102 100 99 97 97 95 94 93 93 92 91 91 90 90 89 89 89 89 88 89 89 90 90 90 90 90 89 89 89 89 89 89 89 89 90 90 91 91 92
116 118 120 122 124 126 127 128 129 131 129 125 121 116 114 114 115 118 121 121 119 119 121 120 117 114 112 111 111 112 114 116 117 113 108 107 109 111 111 110 108 107 105 104 103 103 103 102 100 98 97 96 96 95 96 95 95 95 94 93 93 92 92 91 90 90 89 88 88 89 89 90 90 90 89 90 90 90 90 91 91 92 93 94 94 95
111 114 116 119 121 122 124 126 127 129 128 123 117 113 112 115 118 122 127 128 125 122 121 121 120 117 115 115 116 117 120 122 121 114 108 108 112 114 113 110 107 105 105 104 103 102 101 100 100 99 98 97 96 96 96 95 95 95 94 94 93 93 93 92 92 91 90 89 88 89 89 90 90 91 91 91 92 92 93 93 94 95 95 96 96 97
110 112 114 116 117 118 120 122 124 124 122 116 109 106 108 113 117 123 129 130 126 118 114 115 118 118 118 119 119 120 122 122 119 113 108 108 112 113 111 108 106 104 104 103 102 100 99 98 97 96 95 95 94 93 93 92 91 91 91 91 91 90 90 91 90 90 90 90 90 90 91 91 91 91 92 93 94 94 95 95 96 96 97 97 98 98
113 113 114 115 115 115 116 118 120 120 116 110 104 101 103 108 114 122 127 128 122 111 106 109 115 119 120 119 117 118 119 118 115 110 107 107 108 108 107 105 103 103 102 101 100 98 95 94 92 91 90 90 89 88 87 85 84 84 83 83 84 84 85 85 86 87 88 88 89 90 90 90 91 91 92 93 94 95 95 95 95 96 96 97 98 98
116 115 116 115 115 115 116 117 118 117 112 107 102 100 102 107 113 119 122 121 116 108 104 106 111 114 115 114 113 114 115 113 111 107 103 103 103 103 102 101 100 100 100 100 99 97 94 92 90 90 89 88 86 84 83 81 80 79 78 78 78 78 79 80 81 82 84 85 86 87 88 89 89 90 91 91 92 92 93 93 93 94 95 96 97 97
120 119 119 118 118 117 118 118 119 117 112 107 104 102 103 107 112 115 116 115 112 108 105 104 105 109 111 111 110 112 112 111 109 105 102 101 102 102 101 101 101 101 101 101 101 100 98 95 93 93 92 90 87 84 83 82 81 81 81 81 81 80 80 80 80 80 81 82 82 83 84 85 87 87 88 89 89 89 90 91 92 93 94 94 95 96
124 124 124 123 122 122 122 122 122 120 116 112 110 109 109 110 112 113 113 114 113 111 109 106 106 108 111 112 111 110 111 112 111 109 107 105 105 105 104 104 104 104 105 105 105 105 104 102 100 99 97 95 92 89 87 87 87 87 88 87 87 86 85 85 84 83 83 82 82 83 84 85 86 87 88 88 89 89 90 91 92 92 93 94 94 95
129 128 127 127 127 127 127 127 126 124 122 120 118 118 118 117 116 116 116 116 116 115 114 111 109 109 111 113 113 112 112 112 113 113 112 111 110 109 109 108 108 107 107 107 107 108 108 106 105 104 103 101 100 98 96 95 94 94 94 94 94 94 94 93 93 92 91 90 89 89 89 89 90 90 90 91 91 92 93 93 93 94 94 95 95 96
132 131 131 131 132 132 132 131 130 128 128 127 126 125 124 123 122 122 122 121 120 120 119 118 115 113 114 115 116 116 115 115 115 116 116 115 114 113 112 112 111 110 109 109 109 109 108 108 107 106 106 105 105 105 104 103 102 102 102 102 102 102 102 102 102 102 101 101 100 99 98 97 97 96 96 97 97 98 98 98 99 99 99 100 101 102
135 134 134 135 136 136 135 134 133 131 131 131 130 129 128 127 127 127 127 127 125 124 124 123 121 119 118 119 120 120 119 119 119 119 119 119 118 117 116 115 114 113 112 111 111 111 110 110 110 110 111 111 111 110 109 109 109 108 108 108 108 108 108 108 108 108 108 108 108 108 107 107 106 105 105 105 105 105 106 106 106 107 108 108 109 110
139 138 138 139 139 139 138 136 135 134 135 134 134 133 132 132 132 131 132 131 130 129 128 127 126 124 123 123 123 123 123 123 123 123 122 122 121 120 119 119 118 117 116 115 115 114 114 114 114 114 114 116 116 117 116 115 114 113 113 112 112 111 111 111 111 111 111 111 112 112 112 112 112 112 112 112 112 112 112 112 113 113 114 114 115 116
141 141 141 142 141 141 140 139 138 138 139 139 139 138 137 137 137 137 136 136 135 133 132 131 130 129 128 127 127 127 126 126 126 125 124 123 122 121 120 120 119 118 117 117 116 116 116 116 116 116 117 117 118 120 120 120 119 118 117 116 115 114 113 113 113 113 113 113 114 114 115 115 115 116 116 116 116 116 116 116 117 117 118 118 118 118
143 143 143 143 143 142 141 140 139 140 142 143 143 142 141 140 141 141 140 139 138 137 137 136 135 133 132 131 131 130 130 129 129 128 126 125 124 123 122 121 121 120 119 118 117 117 117 118 118 118 119 119 119 120 121 121 121 121 120 119 118 117 116 115 115 114 114 114 115 115 115 116 116 117 118 118 119 119 119 119 120 120 120 120 118 117
142 142 143 144 144 143 141 141 141 142 143 143 143 143 142 143 143 142 142 142 141 141 140 139 138 136 135 134 133 132 132 131 131 130 129 128 127 126 125 124 123 122 121 120 120 119 120 120 120 121 121 121 121 121 122 122 122 122 122 121 121 120 119 118 118 117 117 116 116 116 116 116 117 118 119 119 120 120 121 121 120 119 117 116 114 112
138 140 142 143 143 142 140 140 142 143 144 143 142 142 143 143 144 143 142 142 142 142 142 140 138 137 136 135 134 133 133 132 132 132 131 130 129 128 127 126 126 124 124 123 122 122 122 122 122 122 122 122 122 123 123 123 123 123 122 122 122 121 121 121 121 120 119 119 119 118 118 118 118 119 119 119 119 118 117 116 115 113 111 109 109 108
Wind_Direction
243 244 245 246 247 248 250 252 253 253 253 254 255 257 260 263 265 268 269 272 274 277 280 283 285 287 286 285 283 280 280 279 278 279 278 279 279 279 280 282 283 283 283 282 282 285 287 289 289 289 289 288 287 286 284 283 283 283 284 284 284 284 283 282 281 280 280 280 280 280 280 280 280 279 279 279 279 280 279 278 278 277 276 277 277 278
242 243 244 246 247 248 249 250 250 250 252 253 255 257 259 262 263 265 267 270 272 275 277 280 283 284 285 284 282 281 280 279 278 278 277 277 278 279 281 282 283 284 284 283 283 284 285 288 290 290 291 290 290 289 287 286 286 285 284 284 285 285 285 285 285 284 283 283 282 281 281 280 280 280 279 279 280 280 280 281 281 280 280 279 279 279
242 242 244 246 247 248 248 249 249 251 252 253 255 257 259 260 262 264 266 268 270 272 275 278 280 282 283 282 281 280 280 280 280 279 278 277 277 278 280 281 282 284 284 284 284 284 285 286 288 290 290 290 291 291 290 289 289 288 287 286 286 286 286 287 287 286 286 286 285 284 284 283 282 281 280 280 279 279 280 282 282 282 282 282 282 281
241 242 244 245 246 247 248 248 249 250 251 253 254 256 258 260 261 263 265 266 268 270 272 275 276 279 281 281 280 279 279 280 281 281 281 279 278 279 280 281 282 283 284 284 285 286 285 285 287 288 288 288 288 289 289 289 288 288 287 287 287 287 287 288 287 286 286 287 287 287 286 285 283 282 281 280 279 279 281 281 281 282 282 283 282 282
241 243 244 246 246 247 247 247 248 249 250 252 254 255 257 259 261 262 263 265 267 268 269 271 273 276 279 279 278 278 278 279 281 281 281 280 281 282 282 281 283 284 285 285 285 286 286 286 286 286 285 285 285 285 286 288 288 287 286 285 286 286 287 287 287 287 287 287 287 287 286 285 284 283 282 281 281 281 280 280 280 280 281 281 281 282
242 243 244 245 245 245 245 246 247 248 250 252 254 255 257 259 262 263 263 265 265 266 267 268 271 273 276 277 277 276 277 278 280 279 279 280 282 284 284 283 283 285 286 286 285 285 285 286 286 285 284 284 284 283 284 286 288 289 287 286 284 284 285 286 286 287 287 287 287 286 285 284 283 282 281 281 281 281 280 279 279 280 280 281 282 283
241 242 244 244 244 244 244 245 247 248 250 252 254 256 258 260 262 263 263 263 263 263 264 266 269 270 273 276 275 275 276 277 278 277 277 280 283 284 284 284 285 286 285 285 285 285 285 285 285 285 285 285 285 284 284 284 286 287 288 287 285 284 285 285 286 287 287 288 288 287 286 285 284 282 283 283 282 282 282 281 281 281 281 282 283 283
240 241 243 243 243 244 244 245 248 250 251 253 256 258 259 260 261 261 261 261 261 261 262 265 267 266 269 273 273 274 276 276 275 275 277 280 282 283 284 284 286 285 285 285 285 285 285 284 284 284 285 286 286 286 285 284 283 284 285 286 286 285 286 286 287 288 288 288 288 288 287 286 285 285 285 285 284 284 284 283 283 283 283 283 283 283
241 242 243 244 245 246 247 248 250 252 253 254 255 257 258 258 259 259 259 260 260 261 262 264 266 265 264 268 272 275 275 274 274 275 278 280 282 282 282 282 283 284 284 284 285 285 285 285 285 285 286 286 287 287 286 285 284 284 284 285 285 285 286 287 289 289 290 289 288 287 287 286 286 286 286 285 285 285 284 284 284 283 283 283 283 283
241 243 244 245 246 247 247 248 249 251 252 252 253 255 256 256 257 258 259 259 260 261 261 261 264 264 259 262 271 275 274 272 273 276 280 282 282 281 280 281 282 283 284 284 285 286 286 286 286 286 287 287 288 287 286 286 285 285 285 285 285 285 286 288 290 291 291 290 289 288 287 286 286 285 285 284 285 285 285 284 284 283 283 283 282 283
241 243 244 245 246 246 247 248 249 249 250 250 251 253 254 255 256 258 259 260 260 260 259 260 261 262 258 258 266 270 271 272 274 278 281 280 278 277 278 280 282 282 283 284 285 286 285 286 287 288 288 289 289 288 287 287 287 287 288 288 288 288 289 290 291 291 291 290 290 289 288 287 286 285 284 284 284 285 284 283 283 283 282 282 282 283
240 242 243 244 244 245 246 247 248 249 249 250 251 253 255 256 257 258 258 259 260 260 259 258 258 260 259 254 259 267 272 273 275 277 278 277 276 276 277 279 281 282 283 284 285 285 286 287 289 289 290 290 289 288 289 290 290 290 290 291 291 291 291 291 291 291 291 291 290 289 288 287 286 285 284 283 284 283 282 281 282 282 282 282 282 283
239 240 241 242 243 244 246 248 249 250 251 251 252 253 254 255 255 256 257 259 261 260 259 258 257 259 259 251 255 267 273 274 275 276 276 275 275 276 277 280 281 281 282 283 285 285 287 288 290 291 291 290 288 289 290 290 291 290 290 291 290 290 290 290 290 291 292 292 290 289 287 287 286 285 284 284 283 282 282 282 282 282 282 283 283 284
240 241 243 244 246 247 248 249 250 250 250 250 251 251 252 254 255 257 259 261 261 261 259 257 257 258 257 252 254 261 268 271 275 277 277 277 277 278 279 281 280 280 281 283 284 285 287 290 292 292 291 290 289 289 289 290 291 289 289 289 289 288 288 287 288 289 291 291 290 289 288 288 288 286 284 284 284 284 284 284 284 283 283 284 285 287
242 242 243 245 246 246 247 247 248 248 249 250 251 252 253 255 258 259 259 260 260 259 258 257 258 259 256 254 254 257 261 266 269 273 276 277 279 280 282 282 281 281 282 283 284 285 288 291 292 292 291 291 290 289 290 290 290 289 288 288 287 287 286 285 285 286 288 289 288 288 289 290 289 287 286 285 285 285 285 285 284 283 283 284 287 288
241 241 242 243 243 244 245 246 247 248 249 250 251 253 254 256 257 258 258 259 259 259 260 260 262 262 257 254 256 256 257 260 263 267 271 273 276 279 281 281 280 281 281 283 284 285 288 290 290 291 291 291 291 290 291 291 290 289 288 287 286 285 285 285 285 285 286 287 286 286 288 289 289 289 289 288 287 285 285 284 283 283 283 285 287 288
241 241 240 241 242 243 244 245 247 248 249 251 253 255 256 256 257 259 260 260 261 262 264 265 266 263 257 255 255 254 255 257 261 265 268 270 273 276 277 277 277 278 279 281 283 284 287 288 289 290 290 290 291 291 291 291 289 288 287 286 285 285 285 286 286 286 286 287 286 286 286 287 288 289 290 291 289 287 286 285 284 284 284 285 287 288
241 241 240 240 242 243 244 246 247 249 251 252 254 256 257 256 258 260 261 261 262 264 264 264 264 261 257 257 256 254 256 257 259 264 268 269 271 273 274 274 275 276 278 280 281 283 285 286 287 287 288 288 289 289 290 289 287 287 286 286 286 285 285 284 284 285 286 286 286 286 286 286 287 288 289 290 290 289 288 287 286 285 285 286 287 288
241 242 241 241 242 244 245 246 248 250 252 254 254 255 255 256 258 259 261 262 262 263 263 262 262 262 261 262 258 254 255 257 259 263 266 268 269 270 272 272 274 275 277 278 279 281 282 284 284 284 284 286 287 287 287 287 286 286 286 286 285 285 284 283 283 284 284 285 285 286 286 287 287 287 288 289 290 290 289 288 288 287 287 287 288 289
242 243 243 242 243 244 246 248 250 251 253 254 254 254 255 256 258 259 261 263 263 264 265 264 263 263 263 262 259 256 256 257 259 261 264 266 268 269 270 271 273 274 276 277 278 279 280 281 281 281 281 282 283 284 284 285 287 288 288 288 287 285 284 283 283 283 284 284 285 286 287 288 288 287 287 288 289 289 289 289 289 289 289 289 289 288
243 244 245 244 244 246 247 249 251 251 252 253 253 254 255 257 258 260 261 263 264 265 266 265 263 263 262 260 259 258 258 258 259 260 262 265 266 267 269 270 272 273 275 276 277 278 279 280 280 280 281 281 281 280 280 282 285 288 290 290 288 286 284 283 282 282 282 284 285 286 287 287 288 288 288 288 287 287 287 288 289 289 289 289 289 288
244 244 245 244 244 245 247 248 248 249 250 252 253 254 255 256 258 260 262 262 263 264 265 265 264 262 259 259 259 259 259 260 260 261 261 262 264 265 267 268 270 271 273 274 276 277 277 277 278 280 281 282 281 281 281 282 283 285 288 289 289 286 284 282 281 281 281 282 284 286 286 287 287 287 287 287 286 286 287 287 288 288 289 289 288 288
245 244 244 245 244 244 245 246 248 249 250 251 253 255 256 257 258 260 262 262 262 263 264 265 265 263 259 259 259 259 260 261 261 261 261 261 262 263 264 265 267 269 271 272 273 274 275 276 278 280 281 281 281 282 284 284 283 284 286 287 287 284 282 280 280 280 281 281 282 284 285 286 286 285 286 286 286 286 286 287 287 287 287 287 288 288
246 246 246 247 246 245 245 247 248 250 252 253 255 256 257 257 259 260 261 261 261 262 263 264 266 266 262 259 260 260 262 263 264 264 264 263 263 264 264 265 266 267 268 270 271 273 274 276 277 278 280 281 281 283 284 285 285 285 285 285 284 282 281 280 279 279 280 280 281 283 283 284 284 284 285 285 285 285 285 285 285 285 285 286 287 287
246 247 247 247 247 247 247 248 249 251 254 255 255 256 256 257 258 258 259 260 260 261 262 264 266 267 265 262 263 265 266 267 268 268 268 267 266 266 266 265 265 265 267 269 271 273 274 276 277 278 279 279 281 283 284 285 284 284 283 283 282 281 280 279 278 278 279 280 281 282 283 284 284 284 284 284 284 284 284 284 283 283 283 284 285 286
247 248 248 248 248 249 249 250 251 252 253 253 253 254 255 256 257 258 258 259 260 262 263 265 267 268 267 265 266 267 268 268 268 268 268 268 268 267 267 267 267 268 269 270 271 272 273 275 277 278 278 278 280 282 283 282 281 281 281 281 280 280 279 279 278 278 279 280 280 281 282 283 284 285 285 284 284 283 283 283 283 283 283 284 284 285
247 247 248 249 249 249 249 249 250 250 251 252 252 253 254 255 256 258 258 260 262 263 264 265 267 268 267 266 265 265 266 267 267 267 267 268 268 268 269 269 270 271 271 271 271 273 274 274 275 276 277 278 279 280 281 280 279 278 278 278 279 279 279 279 279 279 280 280 281 281 282 283 283 283 283 283 282 282 282 282 282 283 283 283 284 284
247 247 248 249 249 249 248 248 249 249 250 251 252 253 254 255 256 257 259 260 262 263 264 265 267 268 267 265 264 265 266 267 266 266 267 268 269 270 270 270 271 272 272 273 273 274 274 274 275 276 277 278 278 278 279 278 278 277 277 277 278 278 278 279 280 281 281 281 281 281 281 282 282 282 282 282 281 281 281 281 281 282 282 283 283 283
248 248 248 249 249 249 249 248 248 249 249 250 251 252 253 254 255 257 258 260 262 263 264 265 265 266 267 266 265 265 266 266 266 266 267 268 268 269 269 270 271 273 274 274 274 274 274 275 276 277 277 277 277 278 277 277 277 278 279 279 279 278 278 279 280 280 281 281 280 280 280 281 281 281 281 281 281 280 280 280 280 281 281 281 282 282
248 248 248 249 250 250 250 249 249 250 250 249 250 251 252 253 255 256 258 260 261 263 265 265 265 265 267 267 267 266 265 265 266 266 267 267 267 269 270 272 272 272 272 273 273 274 275 276 277 277 277 278 278 278 278 277 278 279 280 280 279 279 279 280 279 279 279 278 279 279 280 280 281 281 281 281 281 280 280 279 279 279 280 280 280 281
248 249 249 250 250 250 250 251 251 252 252 251 251 251 252 254 256 258 259 260 261 262 264 265 265 266 267 268 268 267 266 267 267 267 267 267 268 270 270 271 271 271 272 273 274 275 276 277 277 277 278 278 277 277 277 278 280 281 281 280 279 279 280 280 280 280 279 279 278 279 279 280 281 281 281 281 281 280 280 280 279 279 280 280 280 281
248 249 250 251 252 252 252 253 253 254 254 254 253 253 254 256 257 258 259 260 261 263 264 265 267 268 268 268 268 268 268 268 268 267 267 268 268 269 270 271 272 273 274 274 275 275 276 276 276 276 275 275 276 277 279 280 282 282 281 280 279 279 279 280 280 280 280 279 279 279 279 279 280 281 281 281 281 280 280 280 280 280 280 280 281 281
248 249 250 251 252 252 253 254 254 254 255 255 256 256 257 257 258 258 258 260 262 264 265 266 267 268 267 267 268 269 268 268 267 267 267 268 269 270 271 272 273 273 274 274 274 274 274 274 274 274 275 276 278 280 281 282 282 281 280 279 278 278 278 279 279 279 279 278 278 278 278 278 279 279 280 280 280 280 280 280 280 280 281 281 281 281
248 249 250 251 252 252 252 253 254 254 254 255 257 258 258 258 259 259 260 261 262 262 264 264 265 265 266 266 267 268 267 267 267 268 268 269 270 270 270 270 270 271 271 271 271 272 273 274 275 276 278 280 281 281 281 281 280 278 277 277 277 277 276 276 276 276 276 277 277 277 277 277 277 278 279 279 279 279 279 279 280 280 280 280 280 280
248 249 250 250 252 252 252 253 253 254 255 256 258 258 259 259 260 261 261 262 262 263 263 263 264 265 265 266 267 267 267 268 268 268 269 270 270 269 269 269 269 269 270 271 272 274 275 277 278 279 280 280 280 279 278 277 276 276 275 275 275 274 274 273 273 273 273 274 274 275 275 275 276 276 277 277 277 278 278 278 278 279 279 279 278 279
249 250 250 251 251 252 252 252 253 255 256 256 257 257 259 261 262 262 262 262 262 262 262 263 264 265 266 267 267 267 267 267 268 269 270 270 270 269 269 270 270 271 273 274 275 277 277 278 278 278 278 277 277 276 275 275 275 275 274 274 273 273 272 272 272 271 271 271 272 272 273 273 273 274 275 275 275 276 276 276 277 277 278 278 278 279
251 251 251 251 251 252 252 252 253 254 254 255 255 257 259 261 262 263 262 261 261 261 262 263 264 265 266 266 266 267 267 267 268 269 270 270 270 270 271 272 273 274 274 275 275 276 276 276 276 276 276 275 275 275 275 275 274 274 274 273 273 272 272 272 271 271 271 271 271 271 271 271 272 273 273 273 274 274 274 275 276 277 277 278 278 279
253 253 253 253 252 252 253 253 253 253 254 254 256 257 258 259 260 261 262 261 261 261 263 264 265 265 265 266 266 266 266 267 268 269 270 270 270 271 272 273 274 274 274 275 275 275 275 275 276 276 276 276 276 276 275 275 275 275 274 274 273 273 272 272 271 271 271 270 270 270 270 271 271 272 272 272 272 273 274 275 276 276 277 278 278 279
254 255 255 255 255 254 254 255 254 254 255 255 255 256 257 258 259 259 260 260 260 261 263 265 265 265 265 264 265 265 266 267 268 269 269 269 270 272 273 273 274 274 274 274 275 275 275 276 276 276 277 277 277 276 276 276 275 275 274 274 274 273 273 272 272 271 271 270 270 270 270 270 271 271 271 271 272 273 274 275 275 276 277 278 278 279
255 256 256 257 257 257 257 257 257 257 256 256 255 255 256 257 257 258 259 259 260 261 262 264 265 265 265 265 266 266 267 268 269 269 269 269 271 272 273 274 275 275 275 275 275 275 275 275 276 276 277 277 277 277 277 277 277 276 276 276 275 275 274 274 273 272 272 271 271 271 271 271 271 271 271 272 272 273 274 275 276 277 278 278 279 280
254 255 256 257 258 259 259 259 260 259 259 258 258 257 256 256 257 258 260 261 261 261 261 262 264 266 267 268 269 269 270 270 270 269 269 270 272 273 274 275 276 276 276 277 277 276 276 276 276 277 278 278 278 277 277 276 277 277 277 277 277 276 276 275 275 274 274 274 273 273 273 272 272 272 273 273 273 274 275 276 277 278 279 279 280 280
251 252 254 255 257 258 259 260 261 261 261 261 261 260 259 258 259 261 262 264 265 265 264 264 265 266 268 270 272 273 274 274 274 273 272 273 273 275 275 276 277 278 279 280 280 281 280 280 280 281 281 280 280 279 278 278 278 279 279 279 279 278 277 276 276 275 275 275 275 274 274 274 274 274 274 274 274 275 276 277 278 278 278 279 279 280
250 251 252 253 255 256 257 259 260 261 262 263 262 262 261 260 261 262 264 265 267 267 267 267 267 268 270 272 273 274 275 276 277 277 277 277 277 278 278 279 280 281 282 282 283 284 284 284 285 285 285 284 283 282 282 282 283 283 283 283 283 282 281 280 279 278 277 276 275 275 274 274 274 274 274 274 274 275 275 276 277 277 277 277 278 278
250 251 252 253 254 255 256 257 258 260 261 261 261 261 262 262 262 263 263 264 265 266 266 266 266 267 269 271 272 272 273 275 276 277 277 278 279 279 279 280 280 280 281 282 283 283 284 285 286 286 286 286 286 285 285 285 285 285 286 286 286 286 286 286 285 285 283 282 280 279 278 278 277 276 276 276 276 276 277 277 278 279 279 279 280 281
250 251 252 253 254 255 255 256 257 258 259 260 261 261 262 263 263 264 264 264 264 264 265 266 266 266 267 268 270 271 271 272 273 274 275 276 277 277 277 278 278 279 279 280 280 281 282 282 283 283 283 283 284 284 285 285 285 285 286 286 287 287 287 288 288 288 288 287 287 286 285 285 284 283 283 282 282 282 283 284 284 285 285 286 287 288
251 251 252 253 254 255 256 257 258 259 260 260 261 262 262 263 263 264 264 265 265 265 265 266 267 267 267 267 268 269 270 271 271 272 273 274 274 275 275 276 276 276 277 277 278 278 279 279 279 280 280 281 281 281 281 282 282 283 283 284 284 285 285 286 286 287 287 288 288 288 288 288 288 288 288 287 287 288 288 289 290 290 290 291 291 292
252 252 253 253 254 255 256 257 258 259 260 260 261 262 262 263 263 264 264 265 265 265 266 266 267 267 267 267 268 268 269 270 270 271 271 272 272 273 274 274 274 275 275 275 275 276 276 277 277 277 278 279 279 280 280 280 280 280 281 281 281 282 282 283 283 284 285 285 286 286 287 287 288 288 288 288 288 289 289 290 290 290 291 291 292 292
253 254 254 254 255 256 256 257 258 259 260 261 261 261 262 263 263 264 264 265 265 265 266 266 266 266 267 267 267 268 268 269 269 270 270 271 271 272 272 272 273 273 274 274 274 275 275 275 276 276 277 277 278 278 279 279 280 280 280 280 280 280 280 281 281 281 282 282 283 284 284 285 286 286 287 287 288 288 288 289 289 289 290 290 290 291
254 255 255 255 256 256 257 257 258 258 259 260 261 261 262 262 263 263 264 265 265 265 265 266 266 266 266 267 267 268 268 268 268 269 269 269 269 270 270 271 271 272 272 273 273 273 274 274 275 275 276 276 277 277 278 278 279 279 279 279 280 280 280 280 280 280 280 280 281 282 282 283 284 284 285 286 286 287 287 287 288 288 289 289 289 290
254 255 256 256 257 257 257 258 258 258 258 259 260 261 262 262 263 263 264 264 265 265 265 266 266 266 267 267 267 267 268 268 268 268 268 268 269 269 270 270 270 271 271 271 272 272 273 273 274 274 275 275 275 276 276 277 277 278 278 278 279 279 280 280 280 280 280 281 281 281 281 282 282 283 283 284 285 285 286 286 287 287 288 288 288 288
254 255 255 256 256 257 257 257 258 258 258 259 259 260 261 262 263 263 264 264 264 265 266 266 266 267 267 268 268 268 268 268 269 269 269 269 270 270 270 270 271 271 271 271 272 272 272 273 273 273 274 274 275 275 275 275 276 276 277 277 278 278 279 279 280 280 280 281 281 281 281 282 282 282 283 283 284 284 285 285 285 286 286 286 287 287
Height
10743 10745 10748 10748 10749 10751 10754 10760 10763 10762 10761 10762 10763 10764 10766 10768 10772 10775 10776 10776 10776 10777 10777 10779 10780 10781 10783 10785 10786 10786 10786 10786 10787 10788 10788 10788 10787 10786 10786 10787 10787 10787 10788 10789 10788 10787 10786 10785 10784 10783 10781 10780 10779 10778 10778 10777 10776 10775 10774 10773 10772 10772 10772 10771 10770 10770 10769 10768 10767 10766 10765 10763 10762 10761 10760 10759 10757 10756 10756 10756 10755 10755 10754 10753 10752 10751
10737 10741 10742 10742 10743 10747 10752 10756 10756 10754 10755 10756 10757 10760 10761 10764 10767 10770 10772 10772 10772 10773 10773 10775 10777 10777 10778 10781 10781 10782 10782 10782 10784 10785 10784 10785 10784 10783 10784 10784 10783 10784 10785 10785 10785 10785 10784 10782 10781 10780 10778 10777 10776 10775 10774 10773 10772 10772 10771 10769 10768 10767 10767 10766 10765 10765 10765 10764 10764 10763 10762 10760 10759 10758 10756 10755 10753 10752 10750 10750 10749 10748 10748 10748 10747 10746
10733 10736 10736 10736 10738 10742 10748 10749 10748 10748 10749 10750 10752 10754 10756 10758 10762 10766 10768 10768 10768 10770 10769 10771 10773 10772 10773 10776 10777 10779 10778 10777 10779 10780 10780 10781 10781 10781 10781 10780 10781 10781 10781 10781 10781 10782 10781 10780 10779 10777 10776 10774 10773 10771 10770 10770 10769 10768 10767 10766 10765 10763 10762 10762 10761 10760 10760 10759 10759 10759 10758 10756 10755 10754 10752 10751 10750 10748 10746 10745 10744 10743 10742 10742 10741 10740
10727 10729 10729 10730 10733 10739 10742 10742 10742 10743 10743 10744 10747 10749 10751 10752 10757 10762 10763 10762 10764 10765 10765 10767 10769 10768 10768 10771 10773 10774 10774 10773 10774 10776 10775 10776 10777 10777 10778 10777 10777 10777 10777 10777 10778 10778 10777 10777 10776 10774 10773 10772 10770 10769 10767 10767 10766 10765 10764 10763 10761 10760 10759 10758 10757 10756 10756 10755 10754 10753 10753 10752 10750 10749 10748 10747 10745 10744 10743 10742 10740 10738 10737 10736 10735 10735
10722 10724 10723 10725 10729 10734 10735 10735 10735 10736 10736 10738 10741 10743 10745 10747 10752 10757 10757 10757 10759 10761 10761 10762 10766 10765 10763 10766 10769 10769 10771 10769 10770 10771 10770 10771 10772 10773 10774 10773 10774 10773 10773 10773 10773 10774 10773 10773 10773 10771 10770 10769 10768 10766 10764 10763 10762 10761 10761 10760 10759 10757 10756 10755 10753 10752 10752 10751 10749 10748 10747 10746 10745 10743 10742 10741 10740 10740 10740 10738 10736 10734 10732 10731 10730 10729
10717 10718 10717 10719 10723 10725 10727 10728 10727 10728 10730 10732 10735 10737 10739 10742 10747 10751 10752 10753 10754 10756 10756 10757 10763 10763 10758 10761 10763 10764 10767 10765 10765 10766 10766 10767 10769 10769 10769 10769 10770 10770 10768 10768 10769 10770 10770 10769 10768 10768 10767 10766 10765 10763 10761 10760 10758 10757 10756 10756 10755 10754 10752 10751 10749 10748 10747 10746 10745 10744 10742 10741 10740 10738 10737 10736 10736 10735 10734 10733 10731 10730 10728 10726 10724 10724
10711 10710 10709 10711 10715 10717 10720 10720 10720 10722 10724 10727 10730 10731 10733 10738 10741 10744 10745 10746 10748 10751 10752 10753 10759 10761 10756 10755 10757 10759 10762 10762 10760 10760 10761 10764 10765 10765 10764 10764 10765 10766 10764 10764 10764 10765 10765 10765 10764 10764 10763 10762 10761 10760 10758 10757 10755 10753 10751 10750 10750 10750 10748 10747 10746 10744 10743 10742 10740 10738 10737 10736 10734 10733 10732 10731 10731 10730 10728 10727 10726 10725 10723 10721 10720 10718
10704 10702 10701 10704 10706 10709 10712 10714 10714 10716 10719 10724 10725 10726 10728 10732 10734 10736 10738 10739 10742 10745 10747 10750 10753 10758 10757 10750 10748 10754 10758 10756 10753 10754 10758 10761 10762 10761 10760 10759 10760 10760 10760 10759 10759 10760 10760 10760 10760 10760 10759 10758 10757 10756 10754 10753 10751 10750 10747 10745 10745 10744 10743 10742 10741 10739 10738 10737 10735 10734 10732 10731 10729 10728 10727 10725 10725 10724 10722 10721 10720 10719 10718 10716 10715 10713
10696 10695 10695 10698 10700 10704 10708 10710 10710 10710 10715 10720 10719 10719 10722 10724 10725 10727 10729 10732 10736 10739 10745 10748 10746 10752 10758 10749 10742 10748 10752 10749 10746 10748 10754 10758 10757 10756 10755 10755 10756 10755 10754 10755 10754 10755 10755 10755 10756 10755 10754 10753 10752 10751 10750 10748 10747 10745 10743 10741 10740 10739 10738 10736 10735 10734 10733 10732 10731 10729 10728 10726 10724 10723 10722 10720 10719 10718 10717 10715 10715 10713 10712 10711 10709 10707
10690 10689 10689 10692 10695 10699 10702 10702 10703 10705 10709 10712 10712 10712 10714 10715 10717 10718 10722 10726 10729 10734 10742 10745 10740 10745 10756 10751 10741 10742 10744 10741 10739 10743 10750 10753 10752 10750 10748 10750 10751 10750 10749 10749 10749 10750 10750 10750 10750 10750 10750 10749 10748 10747 10745 10744 10742 10740 10738 10736 10735 10734 10732 10731 10730 10729 10727 10726 10725 10723 10722 10721 10719 10718 10717 10715 10714 10713 10712 10710 10709 10708 10707 10705 10703 10701
10684 10682 10683 10688 10690 10692 10693 10693 10695 10698 10701 10703 10704 10705 10705 10707 10709 10711 10716 10717 10721 10730 10738 10741 10736 10736 10750 10754 10743 10737 10735 10733 10734 10739 10743 10746 10746 10744 10743 10745 10745 10744 10744 10744 10744 10744 10745 10745 10745 10745 10745 10744 10743 10741 10739 10738 10736 10735 10733 10731 10730 10728 10727 10726 10724 10723 10722 10720 10719 10717 10716 10716 10714 10713 10711 10710 10709 10709 10707 10705 10704 10702 10701 10700 10698 10696
10676 10674 10677 10680 10682 10683 10683 10684 10687 10690 10693 10695 10697 10698 10698 10699 10701 10703 10708 10709 10714 10725 10733 10735 10730 10729 10746 10754 10742 10734 10731 10726 10728 10734 10737 10738 10739 10738 10738 10740 10740 10738 10737 10738 10738 10738 10739 10740 10740 10740 10739 10738 10737 10735 10734 10732 10731 10730 10728 10727 10725 10724 10722 10720 10718 10717 10716 10715 10713 10712 10711 10710 10708 10707 10706 10705 10704 10703 10701 10700 10699 10697 10695 10694 10692 10691
10667 10667 10669 10671 10673 10676 10676 10678 10681 10683 10687 10689 10690 10690 10688 10689 10691 10695 10700 10703 10709 10718 10725 10727 10723 10726 10743 10749 10741 10736 10729 10719 10720 10727 10730 10730 10731 10731 10732 10735 10734 10732 10731 10731 10732 10732 10733 10734 10735 10735 10733 10732 10731 10730 10729 10727 10726 10725 10724 10722 10721 10719 10718 10715 10713 10712 10711 10709 10708 10706 10705 10704 10703 10702 10700 10699 10699 10697 10695 10695 10693 10691 10690 10688 10686 10685
10659 10662 10664 10666 10670 10672 10671 10672 10673 10674 10676 10677 10678 10678 10678 10680 10684 10691 10696 10698 10702 10709 10716 10717 10716 10726 10740 10743 10740 10736 10727 10718 10716 10718 10720 10721 10721 10722 10726 10728 10727 10725 10724 10725 10725 10725 10727 10728 10729 10728 10727 10726 10725 10724 10724 10723 10722 10720 10719 10718 10716 10714 10713 10711 10709 10707 10706 10704 10702 10701 10700 10699 10698 10696 10694 10694 10693 10691 10690 10689 10687 10686 10684 10682 10681 10680
10653 10658 10661 10662 10664 10663 10662 10662 10661 10662 10663 10665 10668 10669 10673 10678 10682 10687 10688 10688 10694 10699 10703 10707 10712 10727 10737 10736 10735 10730 10725 10722 10717 10714 10714 10712 10710 10712 10717 10719 10717 10716 10716 10718 10718 10718 10720 10722 10722 10721 10720 10719 10719 10719 10718 10717 10716 10715 10714 10712 10711 10709 10707 10705 10704 10702 10701 10699 10697 10696 10695 10693 10692 10690 10688 10688 10687 10685 10684 10683 10681 10679 10678 10676 10675 10674
10644 10649 10653 10652 10651 10651 10650 10649 10650 10653 10654 10657 10661 10663 10671 10677 10676 10675 10677 10680 10684 10686 10692 10700 10711 10726 10731 10729 10730 10724 10721 10722 10717 10714 10712 10707 10705 10707 10711 10711 10708 10708 10709 10711 10711 10711 10714 10716 10715 10715 10713 10713 10713 10713 10713 10712 10711 10710 10709 10707 10705 10703 10701 10699 10698 10697 10695 10694 10693 10691 10689 10688 10687 10684 10683 10683 10682 10680 10678 10677 10675 10673 10672 10671 10670 10668
10634 10637 10642 10641 10640 10642 10641 10640 10642 10645 10646 10651 10656 10659 10668 10671 10666 10663 10668 10674 10674 10676 10688 10697 10706 10719 10721 10722 10726 10719 10716 10717 10713 10711 10708 10704 10703 10705 10706 10705 10702 10702 10703 10705 10705 10704 10708 10710 10709 10709 10707 10706 10706 10706 10707 10706 10705 10704 10703 10702 10700 10698 10696 10694 10692 10690 10689 10688 10687 10685 10683 10682 10681 10679 10677 10677 10676 10674 10672 10671 10669 10667 10666 10664 10663 10662
10623 10624 10631 10633 10632 10635 10634 10632 10635 10638 10641 10647 10653 10657 10660 10660 10657 10656 10658 10664 10667 10671 10683 10691 10697 10706 10709 10717 10723 10716 10711 10711 10707 10706 10703 10701 10701 10700 10700 10699 10697 10697 10698 10699 10698 10697 10700 10703 10703 10704 10702 10700 10700 10700 10701 10700 10700 10699 10698 10696 10694 10692 10690 10688 10686 10684 10683 10682 10680 10678 10677 10676 10675 10673 10672 10671 10670 10668 10666 10664 10662 10661 10660 10658 10657 10656
10615 10613 10621 10626 10626 10627 10626 10624 10629 10635 10638 10644 10648 10650 10649 10648 10650 10649 10648 10655 10660 10662 10671 10681 10688 10693 10701 10713 10717 10710 10706 10703 10701 10702 10700 10697 10696 10694 10694 10693 10690 10691 10693 10692 10691 10691 10693 10695 10696 10697 10696 10695 10694 10693 10694 10694 10694 10694 10692 10691 10689 10686 10684 10682 10680 10678 10676 10675 10673 10671 10670 10669 10668 10667 10665 10664 10663 10661 10659 10657 10656 10655 10653 10652 10651 10649
10607 10603 10610 10619 10620 10619 10618 10621 10629 10635 10636 10635 10637 10639 10639 10640 10642 10642 10642 10647 10650 10651 10659 10670 10677 10685 10697 10706 10705 10702 10700 10696 10696 10698 10695 10693 10691 10688 10688 10686 10683 10684 10686 10685 10683 10683 10685 10686 10686 10688 10690 10689 10688 10687 10686 10687 10688 10687 10686 10684 10683 10680 10678 10675 10673 10671 10668 10667 10665 10664 10663 10662 10661 10659 10658 10657 10655 10653 10652 10650 10649 10647 10646 10645 10644 10641
10595 10596 10602 10610 10614 10613 10616 10623 10627 10627 10624 10622 10624 10628 10632 10635 10634 10632 10636 10640 10640 10641 10648 10654 10662 10679 10694 10695 10694 10694 10692 10689 10690 10692 10691 10688 10685 10683 10681 10679 10677 10677 10678 10677 10675 10675 10677 10677 10676 10677 10681 10683 10682 10681 10681 10682 10682 10681 10679 10677 10675 10673 10671 10668 10666 10663 10661 10659 10658 10656 10655 10654 10652 10651 10650 10649 10648 10645 10644 10643 10641 10640 10639 10637 10635 10633
10584 10589 10592 10596 10604 10608 10611 10616 10615 10612 10613 10612 10614 10620 10626 10629 10626 10624 10627 10633 10632 10631 10635 10637 10644 10670 10689 10686 10684 10686 10682 10682 10682 10683 10685 10683 10679 10677 10675 10673 10671 10670 10670 10669 10669 10668 10667 10667 10667 10667 10670 10673 10673 10673 10674 10677 10678 10676 10673 10670 10668 10666 10663 10661 10658 10656 10654 10652 10651 10649 10648 10646 10645 10643 10642 10642 10640 10637 10636 10635 10634 10632 10631 10628 10626 10624
10572 10576 10579 10584 10595 10602 10603 10605 10603 10602 10605 10605 10607 10615 10620 10621 10620 10617 10616 10621 10622 10620 10624 10623 10625 10655 10682 10678 10674 10677 10674 10673 10674 10672 10675 10674 10672 10670 10668 10668 10666 10664 10664 10663 10662 10660 10658 10659 10659 10659 10661 10662 10662 10664 10667 10670 10670 10668 10666 10663 10660 10657 10655 10653 10651 10648 10647 10645 10643 10642 10641 10639 10637 10635 10634 10634 10632 10630 10628 10627 10625 10623 10621 10619 10617 10615
10561 10564 10572 10578 10585 10591 10595 10597 10596 10596 10598 10601 10606 10611 10612 10612 10613 10608 10604 10606 10609 10610 10617 10612 10608 10640 10673 10669 10663 10668 10667 10665 10665 10663 10664 10664 10664 10663 10661 10661 10661 10659 10659 10657 10655 10655 10652 10652 10653 10653 10653 10652 10652 10656 10659 10662 10662 10660 10658 10655 10651 10648 10646 10644 10642 10640 10639 10637 10636 10635 10634 10633 10630 10628 10627 10626 10624 10622 10620 10618 10616 10614 10612 10611 10608 10606
10552 10555 10563 10568 10571 10578 10588 10593 10593 10595 10595 10597 10601 10601 10600 10602 10600 10595 10594 10593 10592 10600 10609 10603 10599 10628 10661 10660 10654 10659 10660 10659 10658 10654 10653 10653 10653 10652 10652 10652 10652 10652 10653 10653 10651 10650 10646 10644 10645 10647 10646 10643 10643 10647 10651 10653 10653 10651 10649 10645 10641 10638 10636 10635 10634 10632 10631 10629 10628 10627 10625 10624 10623 10621 10619 10618 10616 10613 10611 10610 10607 10605 10604 10602 10600 10597
10543 10545 10551 10555 10560 10570 10584 10589 10589 10590 10587 10583 10587 10589 10589 10591 10586 10583 10583 10578 10579 10593 10601 10597 10597 10619 10646 10653 10648 10648 10650 10650 10648 10643 10641 10641 10640 10639 10640 10641 10640 10642 10646 10647 10645 10643 10641 10639 10637 10638 10638 10636 10637 10639 10641 10642 10642 10642 10640 10636 10632 10629 10626 10625 10625 10623 10622 10622 10620 10618 10616 10615 10615 10613 10612 10610 10607 10604 10602 10601 10598 10596 10595 10593 10591 10589
10532 10535 10540 10545 10551 10563 10576 10579 10575 10574 10572 10569 10575 10580 10580 10579 10576 10572 10569 10568 10577 10588 10589 10591 10597 10608 10629 10642 10639 10637 10640 10639 10635 10631 10629 10629 10628 10627 10628 10630 10631 10632 10635 10636 10635 10635 10634 10632 10630 10630 10631 10631 10631 10631 10632 10631 10630 10631 10630 10626 10622 10619 10616 10615 10615 10615 10615 10613 10612 10609 10606 10606 10606 10605 10603 10601 10598 10595 10593 10592 10589 10587 10586 10584 10582 10579
10520 10526 10533 10535 10539 10550 10560 10563 10559 10558 10561 10563 10566 10569 10568 10568 10566 10560 10559 10567 10576 10574 10575 10589 10595 10595 10610 10625 10626 10629 10634 10627 10621 10620 10619 10618 10619 10617 10617 10620 10622 10621 10622 10623 10624 10623 10623 10622 10623 10624 10624 10624 10623 10624 10623 10620 10618 10620 10621 10618 10614 10610 10607 10607 10607 10608 10606 10604 10602 10599 10597 10597 10596 10595 10593 10591 10589 10586 10584 10583 10580 10578 10577 10574 10572 10569
10508 10515 10524 10524 10525 10534 10541 10547 10547 10545 10550 10554 10554 10555 10556 10555 10555 10553 10555 10566 10569 10561 10566 10583 10586 10583 10592 10604 10613 10624 10624 10611 10606 10609 10611 10610 10608 10605 10606 10609 10612 10612 10610 10610 10611 10611 10612 10614 10616 10616 10615 10614 10614 10615 10614 10610 10608 10610 10611 10610 10606 10600 10598 10599 10600 10599 10597 10594 10591 10589 10588 10587 10586 10584 10583 10582 10580 10578 10576 10574 10571 10569 10567 10565 10562 10559
10495 10504 10513 10511 10510 10518 10525 10531 10534 10532 10535 10540 10542 10544 10545 10545 10547 10549 10553 10561 10561 10555 10558 10567 10570 10573 10583 10590 10600 10610 10607 10596 10594 10598 10600 10599 10596 10595 10597 10601 10602 10600 10598 10598 10599 10600 10603 10606 10606 10605 10604 10604 10604 10603 10601 10600 10600 10602 10602 10600 10596 10591 10588 10590 10591 10590 10587 10585 10582 10580 10578 10576 10574 10573 10572 10571 10569 10568 10567 10565 10562 10560 10558 10555 10552 10550
10486 10492 10501 10499 10497 10504 10514 10520 10523 10521 10521 10524 10528 10533 10537 10541 10547 10549 10551 10553 10550 10547 10551 10553 10553 10565 10581 10584 10581 10587 10591 10586 10583 10585 10586 10586 10588 10587 10587 10589 10588 10586 10586 10589 10591 10592 10592 10594 10595 10595 10594 10592 10591 10589 10589 10590 10592 10593 10593 10589 10585 10582 10580 10579 10579 10578 10577 10575 10573 10570 10568 10566 10563 10561 10560 10559 10557 10556 10556 10554 10551 10550 10547 10545 10542 10540
10479 10483 10490 10492 10487 10494 10508 10512 10511 10512 10507 10503 10511 10527 10537 10543 10546 10544 10542 10541 10540 10542 10545 10544 10544 10557 10574 10572 10561 10569 10580 10574 10568 10571 10572 10573 10577 10576 10575 10576 10576 10575 10577 10580 10581 10581 10581 10582 10582 10582 10581 10579 10579 10579 10580 10582 10583 10583 10581 10576 10573 10572 10571 10570 10569 10567 10566 10564 10562 10561 10558 10556 10553 10550 10548 10547 10545 10545 10544 10542 10539 10538 10536 10534 10532 10530
10472 10475 10481 10482 10475 10482 10499 10500 10496 10497 10488 10484 10503 10525 10533 10535 10533 10529 10530 10535 10540 10539 10535 10534 10539 10546 10554 10555 10551 10558 10562 10554 10549 10556 10560 10562 10566 10566 10564 10565 10565 10565 10566 10568 10568 10567 10567 10569 10568 10567 10569 10570 10570 10571 10571 10571 10571 10570 10567 10563 10561 10560 10560 10560 10559 10557 10554 10553 10552 10550 10548 10546 10543 10540 10538 10536 10534 10533 10532 10530 10528 10526 10525 10523 10521 10519
10462 10465 10469 10469 10464 10470 10487 10489 10481 10473 10468 10480 10507 10519 10518 10518 10518 10517 10522 10531 10534 10529 10523 10523 10528 10530 10533 10540 10543 10543 10540 10535 10534 10541 10548 10553 10555 10553 10551 10551 10553 10554 10554 10553 10554 10554 10554 10556 10556 10557 10560 10562 10561 10561 10560 10558 10556 10555 10554 10553 10551 10549 10548 10548 10547 10545 10543 10542 10540 10539 10537 10535 10533 10530 10528 10525 10523 10521 10520 10518 10517 10515 10514 10512 10510 10508
10451 10454 10457 10459 10455 10458 10472 10475 10461 10450 10463 10489 10505 10504 10502 10505 10507 10507 10513 10519 10520 10516 10511 10510 10512 10516 10522 10528 10530 10526 10522 10521 10521 10527 10538 10541 10537 10534 10534 10537 10540 10540 10539 10540 10542 10544 10545 10547 10547 10548 10550 10550 10549 10548 10546 10544 10542 10541 10541 10541 10540 10538 10536 10534 10534 10533 10532 10530 10529 10527 10526 10524 10521 10520 10517 10514 10512 10511 10509 10507 10505 10504 10502 10501 10498 10496
10441 10443 10445 10447 10444 10443 10453 10456 10446 10445 10466 10484 10488 10490 10496 10497 10497 10496 10497 10503 10506 10499 10494 10496 10501 10507 10513 10515 10514 10510 10505 10504 10506 10516 10530 10530 10519 10512 10515 10523 10529 10528 10528 10532 10534 10535 10535 10535 10535 10536 10536 10535 10535 10534 10532 10530 10529 10528 10528 10528 10526 10525 10523 10522 10521 10520 10519 10518 10517 10515 10514 10512 10510 10508 10506 10504 10501 10500 10498 10496 10494 10492 10490 10488 10487 10484
10429 10429 10430 10430 10428 10430 10435 10438 10439 10440 10449 10463 10477 10492 10498 10490 10486 10481 10471 10477 10489 10485 10478 10485 10494 10499 10502 10500 10497 10494 10488 10486 10492 10509 10524 10516 10498 10494 10502 10511 10518 10518 10518 10522 10523 10524 10524 10521 10521 10522 10521 10520 10521 10520 10519 10518 10516 10516 10515 10514 10513 10512 10510 10509 10508 10506 10506 10505 10504 10503 10501 10500 10498 10497 10495 10492 10490 10488 10486 10485 10483 10481 10478 10476 10475 10473
10414 10413 10415 10412 10413 10420 10419 10420 10425 10425 10432 10456 10481 10493 10491 10478 10471 10462 10446 10447 10467 10476 10475 10476 10479 10487 10490 10485 10480 10476 10469 10468 10480 10505 10518 10500 10480 10482 10494 10500 10504 10505 10505 10507 10508 10510 10511 10510 10509 10508 10507 10507 10507 10506 10505 10505 10503 10503 10502 10501 10499 10498 10497 10496 10494 10493 10493 10492 10491 10490 10489 10487 10486 10484 10482 10480 10478 10477 10475 10473 10471 10469 10467 10465 10463 10461
10400 10399 10401 10397 10399 10408 10407 10405 10410 10413 10426 10454 10475 10481 10476 10463 10455 10444 10424 10423 10450 10473 10474 10464 10461 10468 10471 10466 10463 10459 10454 10458 10475 10496 10503 10486 10471 10476 10484 10487 10490 10492 10492 10493 10495 10496 10498 10498 10497 10496 10495 10494 10493 10492 10491 10491 10490 10490 10489 10487 10486 10485 10484 10483 10481 10481 10480 10479 10478 10477 10476 10475 10473 10472 10470 10468 10466 10465 10463 10462 10460 10458 10455 10453 10451 10449
10387 10387 10388 10385 10389 10397 10397 10393 10395 10401 10417 10442 10460 10466 10461 10448 10437 10423 10405 10411 10444 10467 10464 10453 10448 10450 10449 10448 10450 10446 10444 10454 10468 10480 10485 10477 10468 10471 10473 10474 10476 10477 10477 10479 10481 10483 10485 10485 10484 10484 10482 10481 10480 10479 10478 10478 10477 10476 10475 10474 10473 10472 10471 10470 10469 10468 10467 10466 10465 10464 10464 10463 10461 10460 10458 10456 10455 10453 10451 10450 10448 10446 10443 10441 10438 10436
10375 10376 10376 10376 10379 10384 10383 10380 10382 10389 10406 10426 10440 10446 10443 10433 10422 10407 10399 10411 10433 10448 10451 10448 10444 10438 10433 10434 10437 10433 10433 10443 10452 10461 10470 10468 10462 10462 10462 10461 10462 10462 10461 10463 10464 10466 10470 10471 10472 10471 10469 10468 10468 10467 10466 10465 10464 10463 10462 10461 10461 10460 10459 10458 10457 10456 10455 10454 10453 10452 10451 10450 10449 10448 10446 10445 10443 10442 10439 10438 10436 10433 10431 10429 10426 10425
10364 10365 10365 10366 10368 10371 10372 10370 10369 10376 10392 10409 10420 10425 10426 10419 10409 10401 10402 10408 10414 10424 10436 10440 10437 10431 10422 10421 10425 10422 10421 10427 10432 10440 10450 10452 10450 10450 10450 10448 10449 10448 10447 10448 10448 10449 10451 10454 10457 10457 10455 10454 10454 10454 10453 10452 10452 10451 10449 10448 10448 10447 10447 10446 10445 10444 10443 10442 10441 10440 10439 10438 10436 10435 10434 10432 10431 10430 10428 10426 10424 10421 10419 10417 10415 10413
10352 10352 10353 10355 10358 10361 10362 10360 10359 10365 10380 10395 10401 10403 10404 10402 10398 10397 10399 10400 10400 10406 10416 10422 10425 10423 10413 10409 10414 10414 10412 10413 10415 10420 10428 10431 10433 10435 10436 10436 10436 10435 10434 10434 10433 10433 10433 10436 10439 10439 10438 10438 10438 10439 10440 10439 10437 10437 10435 10435 10434 10433 10433 10433 10431 10431 10430 10429 10429 10428 10426 10425 10424 10422 10421 10420 10418 10417 10415 10413 10411 10409 10407 10405 10402 10400
10340 10342 10345 10348 10349 10349 10348 10350 10353 10359 10369 10377 10380 10382 10383 10385 10388 10390 10389 10390 10392 10393 10396 10405 10413 10414 10406 10401 10403 10405 10405 10405 10404 10405 10409 10413 10417 10420 10421 10423 10423 10423 10423 10422 10420 10419 10418 10420 10422 10421 10420 10421 10421 10422 10423 10423 10423 10423 10421 10421 10420 10419 10418 10417 10416 10415 10415 10414 10413 10413 10412 10411 10409 10408 10407 10406 10404 10402 10400 10398 10397 10395 10392 10390 10388 10386
10330 10336 10337 10336 10335 10333 10334 10339 10345 10351 10356 10358 10361 10366 10369 10371 10375 10376 10374 10377 10383 10382 10381 10388 10398 10402 10400 10395 10392 10394 10397 10397 10396 10395 10396 10400 10404 10406 10407 10409 10410 10410 10410 10410 10408 10407 10406 10406 10407 10407 10407 10408 10408 10408 10408 10408 10408 10408 10408 10407 10406 10405 10404 10403 10401 10400 10399 10398 10398 10397 10396 10395 10394 10392 10391 10389 10387 10386 10384 10382 10381 10378 10376 10374 10371 10369
10320 10325 10324 10321 10319 10321 10324 10331 10337 10341 10344 10346 10346 10351 10355 10357 10360 10361 10358 10360 10368 10371 10371 10374 10380 10386 10389 10386 10383 10384 10386 10386 10385 10385 10386 10388 10390 10392 10394 10396 10398 10398 10398 10398 10396 10395 10394 10394 10393 10392 10392 10392 10393 10394 10395 10395 10395 10396 10395 10394 10393 10392 10391 10389 10388 10387 10386 10384 10383 10381 10380 10379 10378 10377 10376 10374 10372 10370 10368 10367 10365 10363 10360 10358 10355 10353
10305 10308 10309 10309 10309 10311 10315 10323 10331 10330 10328 10331 10333 10335 10339 10342 10343 10344 10343 10344 10350 10356 10359 10361 10363 10367 10371 10372 10371 10372 10372 10372 10372 10373 10374 10375 10377 10379 10380 10381 10383 10385 10385 10385 10384 10383 10382 10381 10380 10380 10380 10378 10377 10378 10378 10379 10381 10381 10382 10381 10381 10379 10378 10377 10375 10374 10373 10371 10369 10367 10366 10365 10363 10362 10361 10359 10358 10357 10354 10352 10350 10348 10346 10343 10341 10338
10290 10291 10291 10294 10298 10301 10304 10313 10322 10319 10312 10314 10317 10319 10324 10326 10325 10325 10326 10328 10333 10338 10341 10344 10347 10349 10352 10354 10354 10356 10359 10359 10357 10358 10360 10362 10363 10365 10366 10366 10368 10369 10370 10371 10371 10370 10369 10368 10367 10367 10367 10366 10365 10364 10363 10363 10364 10364 10365 10365 10365 10365 10364 10363 10362 10361 10359 10358 10356 10354 10353 10351 10350 10348 10346 10344 10343 10341 10339 10337 10335 10333 10331 10328 10326 10324
10274 10273 10274 10279 10284 10288 10291 10299 10308 10305 10297 10296 10299 10302 10307 10309 10307 10306 10308 10311 10315 10319 10321 10324 10327 10330 10335 10337 10338 10339 10342 10342 10341 10342 10344 10346 10348 10349 10350 10351 10352 10354 10355 10357 10357 10356 10355 10354 10353 10352 10352 10352 10351 10350 10349 10348 10347 10347 10347 10347 10347 10347 10347 10347 10347 10346 10345 10344 10343 10341 10339 10338 10336 10334 10331 10329 10327 10325 10323 10321 10319 10317 10314 10312 10309 10307
10260 10259 10262 10264 10264 10269 10278 10284 10287 10284 10279 10280 10284 10287 10288 10289 10289 10291 10294 10295 10296 10297 10300 10303 10308 10312 10316 10319 10321 10322 10323 10324 10324 10324 10326 10329 10331 10332 10333 10335 10336 10338 10340 10342 10342 10342 10341 10340 10339 10338 10338 10337 10336 10335 10334 10333 10332 10331 10331 10330 10330 10329 10329 10329 10329 10329 10328 10328 10327 10326 10325 10323 10321 10319 10316 10314 10312 10310 10307 10305 10303 10300 10298 10295 10293 10290
10248 10246 10247 10246 10243 10251 10264 10268 10264 10259 10259 10265 10273 10274 10271 10270 10270 10273 10277 10278 10278 10278 10279 10284 10291 10297 10298 10300 10302 10304 10306 10306 10306 10306 10308 10311 10314 10316 10318 10318 10319 10322 10323 10324 10326 10326 10325 10324 10324 10323 10322 10322 10321 10319 10318 10317 10316 10315 10315 10315 10315 10314 10313 10312 10312 10312 10312 10311 10309 10308 10308 10306 10304 10303 10301 10299 10297 10294 10292 10290 10287 10285 10283 10280 10278 10275